Location: Newark
(51.8900°N, 2.0780°W)
Time: 17:11:28
(UTC+00:00)

Envisat - Pass Details

Date: 27 November 2019
Orbit: 764 x 766 km, 98.1° (Epoch: 05 December)

Event Time Altitude Azimuth Distance (km) Brightness Sun altitude
Rises 06:00:26 0° 23° (NNE) 3,244 6.4 -15.7°
Reaches altitude 10° 06:03:12 10° 38° (NE) 2,313 5.8 -15.3°
Maximum altitude 06:07:16 24° 91° (E) 1,562 5.5 -14.7°
Drops below altitude 10° 06:11:19 10° 144° (SE) 2,299 6.3 -14.1°
Sets 06:14:03 0° 158° (SSE) 3,220 6.8 -13.7°
